Tracking 31027 objects as of 19-Jul-2025
HD Live streaming from Space Station
objects crossing your sky now

STARLINK-11085

Track STARLINK-11085 now!
10-day predictions
STARLINK-11085 is classified as:


NORAD ID: 59425
Int'l Code: 2024-065E
Perigee: 366.1 km
Apogee: 367.7 km
Inclination: 53.2 °
Period: 91.7 minutes
Semi major axis: 6737 km
RCS: Unknown
Launch date: April 7, 2024
Source: United States (US)
Launch site: AIR FORCE WESTERN TEST RANGE (AFWTR)
Your satellite tracking list
FREGAT DEB
Track 1 satellite(s)




NASA's NSSDC Master Catalog

Two Line Element Set (TLE):
1 59425U 24065E   25199.89156160 -.00000958  00000-0 -30489-5 0  9997
2 59425  53.1594 166.3396 0001166  85.9064 274.2087 15.69705240 74756
Source of the keplerian elements: AFSPC